Home > Weather > Indre Arna > Past weeks

Flag for Norway Past Weather in Indre Arna, Norway — Yesterday and Last 2 Weeks

Now
56 °F

Rain. Overcast.


Feels Like: 56 °F
Forecast: 48 / 64 °F
Wind: 3 mph from South

Location: Bergen / Florida

Current Time: Jun 27, 2016 at 11:39:28 AM

Latest Report: Jun 27, 2016 at 11:00 AM


Visibility: 16 mi

Pressure: 29.67 "Hg

Humidity: 84%

Dew Point: 51 °F

Location of Indre ArnaLocation

Past Weather in Indre Arna — Graph

°F

Indre Arna Temperature Yesterday

Maximum temperature yesterday: 65 °F (at 6:00 PM)
Minimum temperature yesterday: 56 °F (at 1:00 AM)
Average temperature yesterday: 60 °F

High & Low Weather Summary for the Past Weeks

 TemperatureHumidityPressure
High74 °F (Jun 14, 2:00 PM)88% (Jun 24, 8:00 PM)30.13 "Hg (Jun 24, 8:00 PM)
Low47 °F (Jun 20, 3:00 AM)26% (Jun 14, 12:00 PM)29.55 "Hg (Jun 15, 1:00 PM)
Average60 °F67%29.82 "Hg
* Reported Jun 12 10:00 AM — Jun 27 10:00 AM, Indre Arna, Weather by CustomWeather, © 2016

Note: Actual official high and low records may vary slightly from our data, if they occured in-between our weather recording intervals... More about our weather records

Advertising

Indre Arna Weather History for the Previous 24 Hours

Scroll right to see more
 ConditionsComfort  
Time TempWeatherWind HumidityBarometerVisibility
10:00 AM
Mon, Jun 27
54 °FCool.5 mph86%29.67 "HgN/A
9:00 AM53 °FCool.3 mph87%29.67 "HgN/A
8:00 AM53 °FOvercast.3 mph87%29.68 "Hg16 mi
7:00 AM53 °FCool.3 mph88%29.69 "HgN/A
6:00 AM53 °FCool.3 mph88%29.70 "HgN/A
5:00 AM54 °FCool.2 mph88%29.69 "HgN/A
4:00 AM54 °FCool.5 mph88%29.70 "HgN/A
3:00 AM54 °FCool.5 mph87%29.71 "HgN/A
2:00 AM55 °FCool.7 mph86%29.71 "HgN/A
1:00 AM57 °FCool.5 mph84%29.70 "HgN/A
12:00 AM57 °FCool.8 mph86%29.70 "HgN/A
11:00 PM
Sun, Jun 26
59 °FLight rain. Low clouds.7 mph86%29.68 "Hg9 mi
10:00 PM60 °FCool.7 mph87%29.67 "HgN/A
9:00 PM60 °FCool.3 mph87%29.66 "HgN/A
8:00 PM61 °FRain. Low clouds.6 mph86%29.66 "Hg2 mi
7:00 PM63 °FMild.1 mph83%29.65 "HgN/A
6:00 PM65 °FMild.1 mph81%29.64 "HgN/A
5:00 PM63 °FLight rain. Overcast.1 mph82%29.65 "Hg11 mi
4:00 PM62 °FCool.No wind81%29.66 "HgN/A
3:00 PM61 °FCool.3 mph84%29.68 "HgN/A
2:00 PM61 °FCool.3 mph84%29.69 "HgN/A
1:00 PM61 °FCool.3 mph83%29.70 "HgN/A
12:00 PM60 °FCool.3 mph83%29.72 "HgN/A
11:00 AM60 °FRain. Low clouds.5 mph83%29.74 "Hg17 mi
Weather by CustomWeather, © 2016

See weather overviewHow to use our weather pages